Time,TemperatureF,DewpointF,PressureIn,WindDirection,WindDirectionDegrees,WindSpeedMPH,WindSpeedGustMPH,Humidity,HourlyPrecipIn,Conditions,Clouds,dailyrainin,SolarRadiationWatts/m^2,SoftwareType,DateUTC
2013-02-26 00:10:00,47.5,33.0,29.57,West,259,8.0,15.0,58,0.00,,,0.00,0,weatherlink.com 1.10,2013-02-26 06:10:00,
2013-02-26 00:25:00,47.0,33.0,29.58,WSW,258,7.0,18.0,59,0.00,,,0.00,0,weatherlink.com 1.10,2013-02-26 06:25:00,
2013-02-26 00:40:00,46.9,34.0,29.59,West,267,6.0,18.0,61,0.00,,,0.00,0,weatherlink.com 1.10,2013-02-26 06:40:00,
2013-02-26 00:55:00,46.9,34.0,29.59,West,265,7.0,19.0,61,0.00,,,0.00,0,weatherlink.com 1.10,2013-02-26 06:55:00,
2013-02-26 01:10:00,46.8,34.0,29.59,WSW,257,6.0,9.0,62,0.00,,,0.00,0,weatherlink.com 1.10,2013-02-26 07:10:00,
2013-02-26 01:25:00,46.8,35.0,29.60,West,264,7.0,10.0,63,0.00,,,0.00,0,weatherlink.com 1.10,2013-02-26 07:25:00,
2013-02-26 01:40:00,46.3,34.0,29.60,West,265,7.0,14.0,62,0.00,,,0.00,0,weatherlink.com 1.10,2013-02-26 07:40:00,
2013-02-26 01:55:00,45.9,33.0,29.61,West,279,9.0,19.0,62,0.00,,,0.00,0,weatherlink.com 1.10,2013-02-26 07:55:00,
2013-02-26 02:10:00,45.6,33.0,29.61,WSW,258,6.0,14.0,61,0.00,,,0.00,0,weatherlink.com 1.10,2013-02-26 08:10:00,
2013-02-26 02:25:00,45.4,33.0,29.61,WNW,285,6.0,13.0,62,0.00,,,0.00,0,weatherlink.com 1.10,2013-02-26 08:25:00,
2013-02-26 02:40:00,45.3,33.0,29.61,West,269,4.0,14.0,63,0.00,,,0.00,0,weatherlink.com 1.10,2013-02-26 08:40:00,
2013-02-26 02:55:00,45.2,34.0,29.61,WSW,251,5.0,14.0,64,0.00,,,0.00,0,weatherlink.com 1.10,2013-02-26 08:55:00,
2013-02-26 03:10:00,45.2,34.0,29.61,SW,232,7.0,11.0,64,0.00,,,0.00,0,weatherlink.com 1.10,2013-02-26 09:10:00,
2013-02-26 03:25:00,45.1,34.0,29.61,West,281,8.0,12.0,65,0.00,,,0.00,0,weatherlink.com 1.10,2013-02-26 09:25:00,
2013-02-26 03:40:00,45.1,34.0,29.62,WSW,237,8.0,14.0,65,0.00,,,0.00,0,weatherlink.com 1.10,2013-02-26 09:40:00,
2013-02-26 03:55:00,45.1,34.0,29.61,WSW,250,5.0,11.0,66,0.00,,,0.00,0,weatherlink.com 1.10,2013-02-26 09:55:00,
2013-02-26 04:10:00,45.1,34.0,29.61,North,4,2.0,12.0,66,0.00,,,0.00,0,weatherlink.com 1.10,2013-02-26 10:10:00,
2013-02-26 04:25:00,45.1,35.0,29.62,West,274,8.0,10.0,67,0.00,,,0.00,0,weatherlink.com 1.10,2013-02-26 10:25:00,
2013-02-26 04:40:00,45.1,34.0,29.62,WSW,253,8.0,11.0,66,0.00,,,0.00,0,weatherlink.com 1.10,2013-02-26 10:40:00,
2013-02-26 04:55:00,45.1,34.0,29.62,West,269,7.0,10.0,66,0.00,,,0.00,0,weatherlink.com 1.10,2013-02-26 10:55:00,
2013-02-26 05:11:00,45.0,35.0,29.63,West,278,6.0,14.0,67,0.00,,,0.00,0,weatherlink.com 1.10,2013-02-26 11:11:00,
2013-02-26 05:26:00,45.1,35.0,29.64,WNW,297,3.0,13.0,67,0.00,,,0.00,0,weatherlink.com 1.10,2013-02-26 11:26:00,
2013-02-26 05:41:00,45.0,35.0,29.64,North,4,6.0,14.0,67,0.00,,,0.00,0,weatherlink.com 1.10,2013-02-26 11:41:00,
2013-02-26 05:56:00,45.0,33.0,29.65,WNW,286,3.0,14.0,64,0.00,,,0.00,0,weatherlink.com 1.10,2013-02-26 11:56:00,
2013-02-26 06:11:00,45.0,34.0,29.65,North,4,4.0,8.0,65,0.00,,,0.00,0,weatherlink.com 1.10,2013-02-26 12:11:00,
2013-02-26 06:26:00,45.0,34.0,29.66,West,276,5.0,11.0,65,0.00,,,0.00,0,weatherlink.com 1.10,2013-02-26 12:26:00,
2013-02-26 06:41:00,44.9,34.0,29.66,West,274,3.0,11.0,66,0.00,,,0.00,0,weatherlink.com 1.10,2013-02-26 12:41:00,
2013-02-26 06:56:00,45.0,34.0,29.67,West,281,5.0,12.0,65,0.00,,,0.00,5,weatherlink.com 1.10,2013-02-26 12:56:00,
2013-02-26 07:11:00,45.0,34.0,29.68,West,277,4.0,11.0,66,0.00,,,0.00,12,weatherlink.com 1.10,2013-02-26 13:11:00,
2013-02-26 07:26:00,45.0,34.0,29.69,WNW,285,3.0,9.0,66,0.00,,,0.00,16,weatherlink.com 1.10,2013-02-26 13:26:00,
2013-02-26 07:41:00,45.0,34.0,29.70,West,279,9.0,10.0,66,0.00,,,0.00,28,weatherlink.com 1.10,2013-02-26 13:41:00,
2013-02-26 07:56:00,45.0,34.0,29.70,West,277,7.0,11.0,65,0.00,,,0.00,40,weatherlink.com 1.10,2013-02-26 13:56:00,
2013-02-26 08:11:00,45.1,34.0,29.72,WNW,283,4.0,11.0,65,0.00,,,0.00,47,weatherlink.com 1.10,2013-02-26 14:11:00,
2013-02-26 08:26:00,45.2,34.0,29.73,West,264,7.0,13.0,65,0.00,,,0.00,58,weatherlink.com 1.10,2013-02-26 14:26:00,
2013-02-26 08:41:00,45.3,34.0,29.74,WSW,254,4.0,9.0,64,0.00,,,0.00,70,weatherlink.com 1.10,2013-02-26 14:41:00,
2013-02-26 08:56:00,45.4,34.0,29.75,WNW,287,4.0,16.0,64,0.00,,,0.00,84,weatherlink.com 1.10,2013-02-26 14:56:00,
2013-02-26 09:11:00,45.6,34.0,29.75,West,261,6.0,12.0,63,0.00,,,0.00,128,weatherlink.com 1.10,2013-02-26 15:11:00,
2013-02-26 09:26:00,45.9,34.0,29.75,WNW,284,4.0,15.0,63,0.00,,,0.00,146,weatherlink.com 1.10,2013-02-26 15:26:00,
2013-02-26 09:41:00,46.1,34.0,29.77,West,259,6.0,14.0,63,0.00,,,0.00,125,weatherlink.com 1.10,2013-02-26 15:41:00,
2013-02-26 09:56:00,46.0,34.0,29.77,WNW,282,10.0,12.0,63,0.00,,,0.00,123,weatherlink.com 1.10,2013-02-26 15:56:00,
2013-02-26 10:11:00,46.4,33.0,29.78,WSW,246,5.0,11.0,61,0.00,,,0.00,221,weatherlink.com 1.10,2013-02-26 16:11:00,
2013-02-26 10:26:00,47.1,34.0,29.78,WSW,258,7.0,12.0,61,0.00,,,0.00,281,weatherlink.com 1.10,2013-02-26 16:26:00,
2013-02-26 10:41:00,47.8,34.0,29.78,North,4,7.0,11.0,60,0.00,,,0.00,336,weatherlink.com 1.10,2013-02-26 16:41:00,
2013-02-26 10:56:00,48.4,34.0,29.79,WNW,292,7.0,18.0,58,0.00,,,0.00,253,weatherlink.com 1.10,2013-02-26 16:56:00,
2013-02-26 11:11:00,47.9,34.0,29.80,West,271,5.0,9.0,59,0.00,,,0.00,223,weatherlink.com 1.10,2013-02-26 17:11:00,
2013-02-26 11:26:00,48.5,35.0,29.80,WSW,254,7.0,10.0,59,0.00,,,0.00,292,weatherlink.com 1.10,2013-02-26 17:26:00,
2013-02-26 11:42:00,49.4,35.0,29.80,West,270,6.0,11.0,59,0.00,,,0.00,327,weatherlink.com 1.10,2013-02-26 17:42:00,
2013-02-26 11:57:00,50.5,34.0,29.80,West,267,5.0,12.0,54,0.00,,,0.00,343,weatherlink.com 1.10,2013-02-26 17:57:00,
2013-02-26 12:12:00,50.3,36.0,29.80,West,261,7.0,9.0,58,0.00,,,0.00,299,weatherlink.com 1.10,2013-02-26 18:12:00,
2013-02-26 12:27:00,51.3,35.0,29.80,NW,304,4.0,11.0,54,0.00,,,0.00,353,weatherlink.com 1.10,2013-02-26 18:27:00,
2013-02-26 12:42:00,52.1,36.0,29.79,West,273,0.0,11.0,54,0.00,,,0.00,965,weatherlink.com 1.10,2013-02-26 18:42:00,
2013-02-26 12:57:00,54.4,36.0,29.79,WNW,284,1.0,9.0,51,0.00,,,0.00,306,weatherlink.com 1.10,2013-02-26 18:57:00,
2013-02-26 13:12:00,53.9,36.0,29.79,WSW,240,5.0,10.0,52,0.00,,,0.00,844,weatherlink.com 1.10,2013-02-26 19:12:00,
2013-02-26 13:27:00,54.7,37.0,29.79,WNW,296,2.0,11.0,51,0.00,,,0.00,793,weatherlink.com 1.10,2013-02-26 19:27:00,
2013-02-26 13:42:00,55.6,37.0,29.78,West,266,5.0,15.0,50,0.00,,,0.00,761,weatherlink.com 1.10,2013-02-26 19:42:00,
2013-02-26 13:57:00,56.2,37.0,29.78,WNW,293,3.0,14.0,49,0.00,,,0.00,731,weatherlink.com 1.10,2013-02-26 19:57:00,
2013-02-26 14:12:00,57.1,37.0,29.78,WNW,303,4.0,11.0,47,0.00,,,0.00,703,weatherlink.com 1.10,2013-02-26 20:12:00,
2013-02-26 14:27:00,57.2,38.0,29.78,North,4,3.0,10.0,49,0.00,,,0.00,668,weatherlink.com 1.10,2013-02-26 20:27:00,
2013-02-26 14:42:00,57.9,38.0,29.78,SW,219,8.0,9.0,47,0.00,,,0.00,647,weatherlink.com 1.10,2013-02-26 20:42:00,
2013-02-26 14:57:00,58.5,38.0,29.78,West,264,0.0,6.0,47,0.00,,,0.00,587,weatherlink.com 1.10,2013-02-26 20:57:00,
2013-02-26 15:12:00,57.8,36.0,29.78,North,4,4.0,13.0,45,0.00,,,0.00,543,weatherlink.com 1.10,2013-02-26 21:12:00,
2013-02-26 15:27:00,58.1,38.0,29.78,WSW,251,6.0,7.0,47,0.00,,,0.00,494,weatherlink.com 1.10,2013-02-26 21:27:00,
2013-02-26 15:42:00,58.0,37.0,29.78,WSW,249,5.0,9.0,46,0.00,,,0.00,445,weatherlink.com 1.10,2013-02-26 21:42:00,
2013-02-26 15:57:00,57.9,38.0,29.78,West,265,7.0,12.0,47,0.00,,,0.00,397,weatherlink.com 1.10,2013-02-26 21:57:00,
2013-02-26 16:12:00,57.8,37.0,29.78,WSW,250,5.0,9.0,47,0.00,,,0.00,341,weatherlink.com 1.10,2013-02-26 22:12:00,
2013-02-26 16:27:00,57.8,37.0,29.79,WNW,297,1.0,7.0,47,0.00,,,0.00,44,weatherlink.com 1.10,2013-02-26 22:27:00,
2013-02-26 16:42:00,57.2,37.0,29.80,NNW,334,1.0,7.0,47,0.00,,,0.00,90,weatherlink.com 1.10,2013-02-26 22:42:00,
2013-02-26 16:57:00,57.1,38.0,29.80,SW,236,11.0,11.0,49,0.00,,,0.00,44,weatherlink.com 1.10,2013-02-26 22:57:00,
2013-02-26 17:12:00,56.5,37.0,29.81,West,272,2.0,7.0,49,0.00,,,0.00,35,weatherlink.com 1.10,2013-02-26 23:12:00,
2013-02-26 17:27:00,56.0,38.0,29.81,NE,47,0.0,6.0,51,0.00,,,0.00,44,weatherlink.com 1.10,2013-02-26 23:27:00,
2013-02-26 17:42:00,55.7,38.0,29.82,NW,323,0.0,2.0,52,0.00,,,0.00,18,weatherlink.com 1.10,2013-02-26 23:42:00,
2013-02-26 17:57:00,54.6,39.0,29.82,NW,323,0.0,1.0,55,0.00,,,0.00,9,weatherlink.com 1.10,2013-02-26 23:57:00,
2013-02-26 18:12:00,53.0,40.0,29.83,NW,323,0.0,0.0,62,0.00,,,0.00,0,weatherlink.com 1.10,2013-02-27 00:12:00,
2013-02-26 18:27:00,51.0,40.0,29.84,NW,323,0.0,0.0,67,0.00,,,0.00,0,weatherlink.com 1.10,2013-02-27 00:27:00,
2013-02-26 18:42:00,49.0,40.0,29.84,North,4,0.0,0.0,70,0.00,,,0.00,0,weatherlink.com 1.10,2013-02-27 00:42:00,
2013-02-26 18:57:00,47.2,39.0,29.85,NW,323,0.0,0.0,72,0.00,,,0.00,0,weatherlink.com 1.10,2013-02-27 00:57:00,
2013-02-26 19:12:00,45.9,38.0,29.85,North,4,0.0,0.0,74,0.00,,,0.00,0,weatherlink.com 1.10,2013-02-27 01:12:00,
2013-02-26 19:27:00,45.0,38.0,29.86,NW,322,0.0,0.0,76,0.00,,,0.00,0,weatherlink.com 1.10,2013-02-27 01:27:00,
2013-02-26 19:42:00,44.0,37.0,29.86,NW,322,0.0,0.0,77,0.00,,,0.00,0,weatherlink.com 1.10,2013-02-27 01:42:00,
2013-02-26 19:57:00,43.1,36.0,29.87,North,4,0.0,0.0,77,0.00,,,0.00,0,weatherlink.com 1.10,2013-02-27 01:57:00,
2013-02-26 20:13:00,42.3,36.0,29.87,NW,323,0.0,0.0,78,0.00,,,0.00,0,weatherlink.com 1.10,2013-02-27 02:13:00,
2013-02-26 20:28:00,41.9,36.0,29.88,North,4,0.0,0.0,79,0.00,,,0.00,0,weatherlink.com 1.10,2013-02-27 02:28:00,
2013-02-26 20:43:00,41.6,36.0,29.88,NW,323,0.0,0.0,80,0.00,,,0.00,0,weatherlink.com 1.10,2013-02-27 02:43:00,
2013-02-26 20:58:00,41.3,36.0,29.89,North,4,0.0,0.0,80,0.00,,,0.00,0,weatherlink.com 1.10,2013-02-27 02:58:00,
2013-02-26 21:13:00,40.6,35.0,29.90,NW,323,0.0,0.0,80,0.00,,,0.00,0,weatherlink.com 1.10,2013-02-27 03:13:00,
2013-02-26 21:28:00,40.2,35.0,29.90,North,4,0.0,0.0,81,0.00,,,0.00,0,weatherlink.com 1.10,2013-02-27 03:28:00,
2013-02-26 21:43:00,40.1,35.0,29.90,NW,323,0.0,0.0,81,0.00,,,0.00,0,weatherlink.com 1.10,2013-02-27 03:43:00,
2013-02-26 21:58:00,39.7,34.0,29.91,NW,323,0.0,0.0,81,0.00,,,0.00,0,weatherlink.com 1.10,2013-02-27 03:58:00,
2013-02-26 22:13:00,39.1,34.0,29.91,NW,323,0.0,0.0,81,0.00,,,0.00,0,weatherlink.com 1.10,2013-02-27 04:13:00,
2013-02-26 22:28:00,38.6,33.0,29.92,NW,323,0.0,1.0,81,0.00,,,0.00,0,weatherlink.com 1.10,2013-02-27 04:28:00,
2013-02-26 22:43:00,38.4,33.0,29.92,NW,324,0.0,0.0,82,0.00,,,0.00,0,weatherlink.com 1.10,2013-02-27 04:43:00,
2013-02-26 22:58:00,38.1,33.0,29.93,NW,323,0.0,0.0,82,0.00,,,0.00,0,weatherlink.com 1.10,2013-02-27 04:58:00,
2013-02-26 23:13:00,37.8,33.0,29.93,NW,323,0.0,0.0,82,0.00,,,0.00,0,weatherlink.com 1.10,2013-02-27 05:13:00,
2013-02-26 23:28:00,37.7,33.0,29.93,North,4,0.0,0.0,82,0.00,,,0.00,0,weatherlink.com 1.10,2013-02-27 05:28:00,
2013-02-26 23:43:00,37.7,33.0,29.93,North,4,0.0,0.0,82,0.00,,,0.00,0,weatherlink.com 1.10,2013-02-27 05:43:00,
2013-02-26 23:58:00,37.3,32.0,29.94,NW,322,0.0,0.0,82,0.00,,,0.00,0,weatherlink.com 1.10,2013-02-27 05:58:00,